• In Deutschland
  • Länderverzeichnis
  • Für 7 Tage
  • Wassertemperatur
  • Satellitenkarten
  • Wetterkarte
  • Widgets
  • user-avatar
    Anmelden

    Stündliche Wetter Rudolstadt

    Heute, 20 September, Donnerstag

    Zeit Temperatur Niederschläge Wind Luftdruck Luftfeuchtigkeit
    00:00 +19°C° 0 mm 2 m/S 745 mmHg 79%
    01:00 +19°C° 0 mm 2 m/S 745 mmHg 82%
    02:00 +18°C° 0 mm 2 m/S 745 mmHg 84%
    03:00 +18°C° 0 mm 2 m/S 745 mmHg 86%
    04:00 +18°C° 0 mm 2 m/S 745 mmHg 88%
    05:00 +18°C° 0 mm 2 m/S 745 mmHg 88%
    06:00 +18°C° 0 mm 2 m/S 745 mmHg 87%
    07:00 +18°C° 0 mm 2 m/S 745 mmHg 87%
    08:00 +20°C° 0 mm 2 m/S 745 mmHg 78%
    09:00 +22°C° 0 mm 3 m/S 745 mmHg 70%
    10:00 +26°C° 0 mm 3 m/S 745 mmHg 62%
    11:00 +27°C° 0 mm 3 m/S 745 mmHg 58%
    12:00 +28°C° 0 mm 4 m/S 745 mmHg 54%
    13:00 +29°C° 0 mm 4 m/S 744 mmHg 50%
    14:00 +29°C° 0 mm 4 m/S 744 mmHg 50%
    15:00 +29°C° 0 mm 4 m/S 743 mmHg 50%
    16:00 +28°C° 0 mm 4 m/S 743 mmHg 50%
    17:00 +27°C° 0 mm 3 m/S 743 mmHg 57%
    18:00 +25°C° 0 mm 2 m/S 743 mmHg 64%
    19:00 +23°C° 0 mm 2 m/S 742 mmHg 71%
    20:00 +21°C° 0 mm 2 m/S 742 mmHg 73%
    21:00 +20°C° 0 mm 2 m/S 742 mmHg 76%
    22:00 +19°C° 0 mm 2 m/S 742 mmHg 78%
    23:00 +19°C° 0 mm 2 m/S 742 mmHg 80%

    Morgen, 21 September, Freitag

    Zeit Temperatur Niederschläge Wind Luftdruck Luftfeuchtigkeit
    00:00 +19°C° 0 mm 2 m/S 741 mmHg 81%
    01:00 +18°C° 0 mm 3 m/S 741 mmHg 83%
    02:00 +18°C° 0 mm 3 m/S 741 mmHg 83%
    03:00 +18°C° 0 mm 3 m/S 740 mmHg 83%
    04:00 +18°C° 0 mm 3 m/S 740 mmHg 83%
    05:00 +18°C° 0 mm 4 m/S 739 mmHg 82%
    06:00 +18°C° 0 mm 4 m/S 739 mmHg 81%
    07:00 +18°C° 0 mm 4 m/S 739 mmHg 79%
    08:00 +20°C° 0 mm 5 m/S 739 mmHg 71%
    09:00 +22°C° 0 mm 6 m/S 738 mmHg 63%
    10:00 +24°C° 0 mm 7 m/S 738 mmHg 54%
    11:00 +26°C° 0 mm 7 m/S 738 mmHg 51%
    12:00 +27°C° 0 mm 8 m/S 738 mmHg 48%
    13:00 +28°C° 0 mm 8 m/S 738 mmHg 45%
    14:00 +24°C° 0.1 mm 8 m/S 738 mmHg 53%
    15:00 +22°C° 0.1 mm 7 m/S 739 mmHg 60%
    16:00 +20°C° 0.1 mm 7 m/S 739 mmHg 68%
    17:00 +17°C° 0.1 mm 5 m/S 740 mmHg 68%
    18:00 +17°C° 0.1 mm 4 m/S 740 mmHg 67%
    19:00 +14°C° 0.1 mm 3 m/S 741 mmHg 67%
    20:00 +14°C° 0 mm 3 m/S 742 mmHg 65%
    21:00 +13°C° 0 mm 3 m/S 743 mmHg 62%
    22:00 +12°C° 0 mm 3 m/S 743 mmHg 60%
    23:00 +12°C° 0 mm 3 m/S 744 mmHg 60%

    übermorgen, 22 September, Samstag

    Zeit Temperatur Niederschläge Wind Luftdruck Luftfeuchtigkeit
    00:00 +12°C° 0 mm 3 m/S 744 mmHg 60%
    01:00 +11°C° 0 mm 3 m/S 744 mmHg 61%
    02:00 +11°C° 0 mm 3 m/S 745 mmHg 62%
    03:00 +11°C° 0 mm 4 m/S 745 mmHg 63%
    04:00 +11°C° 0 mm 4 m/S 745 mmHg 64%
    05:00 +11°C° 0 mm 4 m/S 745 mmHg 66%
    06:00 +11°C° 0 mm 4 m/S 746 mmHg 68%
    07:00 +11°C° 0 mm 4 m/S 746 mmHg 69%
    08:00 +12°C° 0 mm 4 m/S 746 mmHg 65%
    09:00 +13°C° 0 mm 5 m/S 746 mmHg 60%
    10:00 +14°C° 0 mm 5 m/S 746 mmHg 55%
    11:00 +15°C° 0 mm 5 m/S 746 mmHg 51%
    12:00 +16°C° 0 mm 6 m/S 746 mmHg 47%
    13:00 +17°C° 0 mm 6 m/S 746 mmHg 43%
    14:00 +17°C° 0 mm 6 m/S 746 mmHg 43%
    15:00 +17°C° 0 mm 6 m/S 745 mmHg 42%
    16:00 +16°C° 0 mm 5 m/S 745 mmHg 42%
    17:00 +15°C° 0 mm 4 m/S 745 mmHg 46%
    18:00 +14°C° 0 mm 3 m/S 746 mmHg 50%
    19:00 +14°C° 0 mm 2 m/S 746 mmHg 54%
    20:00 +13°C° 0 mm 2 m/S 746 mmHg 58%
    21:00 +12°C° 0 mm 2 m/S 746 mmHg 62%
    22:00 +10°C° 0 mm 2 m/S 747 mmHg 66%
    23:00 +10°C° 0 mm 2 m/S 746 mmHg 66%

    23 September, Sonntag

    Zeit Temperatur Niederschläge Wind Luftdruck Luftfeuchtigkeit
    00:00 +11°C° 0 mm 1 m/S 746 mmHg 67%
    01:00 +11°C° 0 mm 1 m/S 746 mmHg 68%
    02:00 +11°C° 0 mm 1 m/S 746 mmHg 70%
    03:00 +11°C° 0 mm 1 m/S 745 mmHg 71%
    04:00 +11°C° 0 mm 1 m/S 745 mmHg 73%
    05:00 +10°C° 0.6 mm 2 m/S 745 mmHg 78%
    06:00 +10°C° 0.6 mm 2 m/S 745 mmHg 83%
    07:00 +10°C° 0.6 mm 2 m/S 744 mmHg 88%
    08:00 +10°C° 0.1 mm 3 m/S 744 mmHg 86%
    09:00 +11°C° 0.1 mm 4 m/S 743 mmHg 84%
    10:00 +12°C° 0.1 mm 4 m/S 742 mmHg 82%
    11:00 +12°C° 1.2 mm 4 m/S 741 mmHg 84%
    12:00 +13°C° 1.2 mm 4 m/S 739 mmHg 86%
    13:00 +13°C° 1.2 mm 4 m/S 738 mmHg 88%
    14:00 +14°C° 0.4 mm 5 m/S 737 mmHg 87%
    15:00 +16°C° 0.4 mm 6 m/S 735 mmHg 85%
    16:00 +17°C° 0.4 mm 6 m/S 734 mmHg 84%
    17:00 +19°C° 0.3 mm 6 m/S 733 mmHg 84%
    18:00 +19°C° 0.3 mm 6 m/S 732 mmHg 84%
    19:00 +20°C° 0.3 mm 6 m/S 731 mmHg 84%
    20:00 +20°C° 1 mm 7 m/S 730 mmHg 84%
    21:00 +20°C° 1 mm 7 m/S 729 mmHg 85%
    22:00 +20°C° 1 mm 8 m/S 728 mmHg 85%
    23:00 +16°C° 0.5 mm 9 m/S 727 mmHg 81%

    24 September, Montag

    Zeit Temperatur Niederschläge Wind Luftdruck Luftfeuchtigkeit
    00:00 +13°C° 0.5 mm 9 m/S 726 mmHg 77%
    01:00 +11°C° 0.5 mm 10 m/S 726 mmHg 73%
    02:00 +11°C° 0.4 mm 11 m/S 727 mmHg 76%
    03:00 +10°C° 0.4 mm 12 m/S 728 mmHg 78%
    04:00 +10°C° 0.4 mm 12 m/S 729 mmHg 81%
    05:00 +9°C° 0.3 mm 12 m/S 732 mmHg 80%
    06:00 +8°C° 0.3 mm 11 m/S 734 mmHg 80%
    07:00 +7°C° 0.3 mm 10 m/S 737 mmHg 79%
    08:00 +8°C° 0.3 mm 10 m/S 739 mmHg 78%
    09:00 +8°C° 0.3 mm 10 m/S 740 mmHg 77%
    10:00 +8°C° 0.3 mm 10 m/S 742 mmHg 75%
    11:00 +9°C° 0.3 mm 10 m/S 743 mmHg 71%
    12:00 +11°C° 0.3 mm 10 m/S 744 mmHg 67%
    13:00 +12°C° 0.3 mm 10 m/S 745 mmHg 63%
    14:00 +11°C° 0.1 mm 9 m/S 745 mmHg 61%
    15:00 +11°C° 0.1 mm 9 m/S 746 mmHg 59%
    16:00 +11°C° 0.1 mm 9 m/S 746 mmHg 57%
    17:00 +10°C° 0 mm 8 m/S 747 mmHg 62%
    18:00 +9°C° 0 mm 7 m/S 748 mmHg 66%
    19:00 +8°C° 0 mm 6 m/S 749 mmHg 71%
    20:00 +8°C° 0 mm 6 m/S 750 mmHg 73%
    21:00 +7°C° 0 mm 5 m/S 750 mmHg 75%
    22:00 +7°C° 0 mm 5 m/S 751 mmHg 78%
    23:00 +6°C° 0 mm 5 m/S 751 mmHg 80%

    25 September, Dienstag

    Zeit Temperatur Niederschläge Wind Luftdruck Luftfeuchtigkeit
    00:00 +6°C° 0 mm 5 m/S 751 mmHg 82%
    01:00 +5°C° 0 mm 4 m/S 752 mmHg 84%
    02:00 +6°C° 0 mm 5 m/S 752 mmHg 83%
    03:00 +5°C° 0 mm 6 m/S 752 mmHg 82%
    04:00 +7°C° 0 mm 6 m/S 752 mmHg 82%
    05:00 +7°C° 0.1 mm 6 m/S 752 mmHg 82%
    06:00 +7°C° 0.1 mm 6 m/S 752 mmHg 83%
    07:00 +7°C° 0.1 mm 6 m/S 753 mmHg 84%
    08:00 +8°C° 0.2 mm 6 m/S 753 mmHg 80%
    09:00 +9°C° 0.2 mm 6 m/S 754 mmHg 76%
    10:00 +10°C° 0.2 mm 6 m/S 754 mmHg 72%
    11:00 +11°C° 0.2 mm 6 m/S 754 mmHg 69%
    12:00 +13°C° 0.2 mm 5 m/S 754 mmHg 65%
    13:00 +14°C° 0.2 mm 5 m/S 754 mmHg 61%
    14:00 +14°C° 0.2 mm 5 m/S 754 mmHg 63%
    15:00 +13°C° 0.2 mm 5 m/S 754 mmHg 64%
    16:00 +13°C° 0.2 mm 4 m/S 753 mmHg 66%
    17:00 +12°C° 0.1 mm 4 m/S 754 mmHg 73%
    18:00 +11°C° 0.1 mm 3 m/S 754 mmHg 81%
    19:00 +9°C° 0.1 mm 2 m/S 754 mmHg 88%
    20:00 +9°C° 0 mm 2 m/S 754 mmHg 90%
    21:00 +9°C° 0 mm 2 m/S 754 mmHg 91%
    22:00 +8°C° 0 mm 2 m/S 755 mmHg 93%
    23:00 +8°C° 0 mm 2 m/S 755 mmHg 94%
    Mehr zeigen